EZY612A EGCC-EGAA

Flight info

Callsign EZY612A
Flight time 0h 42m
Altitude 24000
Route EKLAD Y53 WAL M146 IPSET P6 BELZU
Aircraft A20N/M-SDE2E3FGHIJ1RWXYZ/LB1G1

Departure

Time 2026-05-07 06:55
Airport Manchester Airport (EGCC)

Arrival

Time 2026-05-07 07:37
Airport Belfast International Airport (EGAA)
Time Latitude Longitude Altitude Speed Heading
2026-05-07 06:36 53.36828 -2.28659 259 ft 0 kts 314°
2026-05-07 06:38 53.36829 -2.28659 259 ft 0 kts 314°
2026-05-07 06:40 53.36828 -2.28659 259 ft 0 kts 314°
2026-05-07 06:41 53.36821 -2.28646 259 ft 2 kts 312°
2026-05-07 06:41 53.36811 -2.28628 259 ft 2 kts 315°
2026-05-07 06:41 53.36801 -2.28612 259 ft 0 kts 314°
2026-05-07 06:41 53.36794 -2.28598 259 ft 2 kts 302°
2026-05-07 06:42 53.36788 -2.28575 259 ft 2 kts 285°
2026-05-07 06:42 53.36785 -2.28551 259 ft 2 kts 268°
2026-05-07 06:42 53.36788 -2.28526 259 ft 2 kts 251°
2026-05-07 06:42 53.36795 -2.28503 259 ft 2 kts 233°
2026-05-07 06:43 53.36800 -2.28493 259 ft 1 kts 223°
2026-05-07 06:43 53.36803 -2.28489 259 ft 0 kts 225°
2026-05-07 06:46 53.36801 -2.28491 259 ft 1 kts 224°
2026-05-07 06:47 53.36792 -2.28506 259 ft 2 kts 224°
2026-05-07 06:47 53.36773 -2.28538 259 ft 4 kts 225°
2026-05-07 06:47 53.36744 -2.28585 259 ft 6 kts 225°
2026-05-07 06:47 53.36705 -2.28647 259 ft 8 kts 224°
2026-05-07 06:48 53.36659 -2.28725 259 ft 10 kts 225°
2026-05-07 06:48 53.36594 -2.28753 259 ft 11 kts 148°
2026-05-07 06:48 53.36540 -2.28651 259 ft 12 kts 134°
2026-05-07 06:48 53.36479 -2.28545 259 ft 13 kts 135°
2026-05-07 06:49 53.36414 -2.28436 259 ft 13 kts 135°
2026-05-07 06:49 53.36344 -2.28320 259 ft 14 kts 135°
2026-05-07 06:49 53.36274 -2.28198 259 ft 14 kts 136°
2026-05-07 06:49 53.36199 -2.28075 259 ft 15 kts 135°
2026-05-07 06:50 53.36127 -2.27954 259 ft 12 kts 135°
2026-05-07 06:50 53.36074 -2.27863 259 ft 10 kts 139°
2026-05-07 06:50 53.36006 -2.27830 259 ft 10 kts 180°
2026-05-07 06:50 53.35930 -2.27836 259 ft 10 kts 185°
2026-05-07 06:51 53.35857 -2.27807 259 ft 11 kts 146°
2026-05-07 06:51 53.35802 -2.27714 259 ft 11 kts 132°
2026-05-07 06:51 53.35731 -2.27638 259 ft 12 kts 158°
2026-05-07 06:51 53.35651 -2.27574 259 ft 13 kts 141°
2026-05-07 06:52 53.35579 -2.27469 259 ft 14 kts 140°
2026-05-07 06:52 53.35502 -2.27363 259 ft 14 kts 140°
2026-05-07 06:52 53.35421 -2.27256 259 ft 15 kts 143°
2026-05-07 06:52 53.35325 -2.27191 259 ft 15 kts 185°
2026-05-07 06:53 53.35218 -2.27226 259 ft 15 kts 190°
2026-05-07 06:53 53.35109 -2.27266 259 ft 16 kts 194°
2026-05-07 06:53 53.35005 -2.27330 259 ft 16 kts 218°
2026-05-07 06:53 53.34929 -2.27474 259 ft 16 kts 231°
2026-05-07 06:54 53.34855 -2.27630 259 ft 17 kts 232°
2026-05-07 06:54 53.34726 -2.27911 259 ft 63 kts 232°
2026-05-07 06:54 53.34285 -2.28805 259 ft 133 kts 231°
2026-05-07 06:54 53.33590 -2.30267 315 ft 182 kts 232°
2026-05-07 06:55 53.32801 -2.31958 1052 ft 182 kts 230°
2026-05-07 06:55 53.32075 -2.33560 2078 ft 172 kts 239°
2026-05-07 06:55 53.31902 -2.35504 2744 ft 183 kts 279°
2026-05-07 06:55 53.32222 -2.37659 3259 ft 201 kts 283°
2026-05-07 06:56 53.32591 -2.40066 3757 ft 223 kts 282°
2026-05-07 06:56 53.32849 -2.42699 4340 ft 239 kts 265°
2026-05-07 06:56 53.32476 -2.45488 4858 ft 255 kts 251°
2026-05-07 06:56 53.31862 -2.48336 5021 ft 259 kts 249°
2026-05-07 06:57 53.31249 -2.51193 5023 ft 259 kts 250°
2026-05-07 06:57 53.30672 -2.54054 5024 ft 260 kts 251°
2026-05-07 06:57 53.30121 -2.56923 5024 ft 260 kts 252°
2026-05-07 06:57 53.29579 -2.59824 5022 ft 259 kts 252°
2026-05-07 06:58 53.29047 -2.62700 5021 ft 259 kts 252°
2026-05-07 06:58 53.28508 -2.65612 5021 ft 259 kts 251°
2026-05-07 06:58 53.27980 -2.68467 5019 ft 259 kts 251°
2026-05-07 06:58 53.27449 -2.71341 5017 ft 259 kts 251°
2026-05-07 06:59 53.26913 -2.74234 5015 ft 258 kts 251°
2026-05-07 06:59 53.26381 -2.77098 5014 ft 259 kts 251°
2026-05-07 06:59 53.25859 -2.79977 5014 ft 259 kts 255°
2026-05-07 06:59 53.25833 -2.82935 5017 ft 264 kts 282°
2026-05-07 07:00 53.26719 -2.85721 5448 ft 280 kts 309°
2026-05-07 07:00 53.28000 -2.88071 6633 ft 276 kts 309°
2026-05-07 07:00 53.29250 -2.90434 7717 ft 275 kts 309°
2026-05-07 07:00 53.30506 -2.92834 8634 ft 280 kts 309°
2026-05-07 07:01 53.31794 -2.95294 9524 ft 284 kts 309°
2026-05-07 07:01 53.33089 -2.97763 10380 ft 289 kts 309°
2026-05-07 07:01 53.34435 -3.00330 11075 ft 299 kts 309°
2026-05-07 07:01 53.35817 -3.02965 11874 ft 305 kts 309°
2026-05-07 07:02 53.37206 -3.05613 12734 ft 307 kts 309°
2026-05-07 07:02 53.38629 -3.08333 13584 ft 310 kts 309°
2026-05-07 07:02 53.40035 -3.11024 14386 ft 313 kts 309°
2026-05-07 07:02 53.41476 -3.13782 15171 ft 317 kts 309°
2026-05-07 07:03 53.42921 -3.16550 15911 ft 321 kts 309°
2026-05-07 07:03 53.44392 -3.19371 16637 ft 325 kts 309°
2026-05-07 07:03 53.45880 -3.22229 17328 ft 329 kts 310°
2026-05-07 07:03 53.47410 -3.25168 18025 ft 333 kts 309°
2026-05-07 07:04 53.48926 -3.28087 18695 ft 337 kts 310°
2026-05-07 07:04 53.50469 -3.31062 19346 ft 340 kts 310°
2026-05-07 07:04 53.52034 -3.34083 19997 ft 344 kts 310°
2026-05-07 07:04 53.53612 -3.37135 20631 ft 348 kts 310°
2026-05-07 07:05 53.55194 -3.40193 21310 ft 351 kts 310°
2026-05-07 07:05 53.56805 -3.43317 22012 ft 352 kts 309°
2026-05-07 07:05 53.58345 -3.46534 22663 ft 354 kts 306°
2026-05-07 07:05 53.59815 -3.49943 23298 ft 357 kts 305°
2026-05-07 07:06 53.61254 -3.53360 23806 ft 360 kts 305°
2026-05-07 07:06 53.62698 -3.56805 23992 ft 361 kts 305°
2026-05-07 07:06 53.64178 -3.60336 23995 ft 361 kts 305°
2026-05-07 07:06 53.65632 -3.63799 23996 ft 360 kts 305°
2026-05-07 07:07 53.67088 -3.67267 23990 ft 360 kts 304°
2026-05-07 07:07 53.68577 -3.70818 23991 ft 361 kts 304°
2026-05-07 07:07 53.70091 -3.74434 23991 ft 362 kts 304°
2026-05-07 07:07 53.71601 -3.78053 23984 ft 363 kts 304°
2026-05-07 07:08 53.73048 -3.81528 23984 ft 364 kts 304°
2026-05-07 07:08 53.74528 -3.85090 23985 ft 364 kts 304°
2026-05-07 07:08 53.75983 -3.88597 23984 ft 364 kts 304°
2026-05-07 07:08 53.77458 -3.92154 23979 ft 364 kts 304°
2026-05-07 07:09 53.78924 -3.95699 23985 ft 363 kts 304°
2026-05-07 07:09 53.80438 -3.99361 23979 ft 363 kts 304°
2026-05-07 07:09 53.81973 -4.03084 23979 ft 362 kts 304°
2026-05-07 07:09 53.83421 -4.06596 23977 ft 362 kts 304°
2026-05-07 07:10 53.84884 -4.10153 23976 ft 361 kts 304°
2026-05-07 07:10 53.86392 -4.13825 23971 ft 361 kts 304°
2026-05-07 07:10 53.87876 -4.17439 23968 ft 361 kts 304°
2026-05-07 07:10 53.89346 -4.21028 23966 ft 361 kts 304°
2026-05-07 07:11 53.90806 -4.24603 23963 ft 361 kts 304°
2026-05-07 07:11 53.92293 -4.28257 23962 ft 362 kts 304°
2026-05-07 07:11 53.93778 -4.31904 23963 ft 362 kts 304°
2026-05-07 07:11 53.95235 -4.35486 23964 ft 363 kts 304°
2026-05-07 07:12 53.96690 -4.39063 23965 ft 363 kts 304°
2026-05-07 07:12 53.98181 -4.42735 23965 ft 362 kts 304°
2026-05-07 07:12 53.99652 -4.46360 23960 ft 361 kts 304°
2026-05-07 07:12 54.01101 -4.49890 23964 ft 361 kts 306°
2026-05-07 07:13 54.02681 -4.53283 23965 ft 361 kts 310°
2026-05-07 07:13 54.04373 -4.56502 23966 ft 362 kts 311°
2026-05-07 07:13 54.06084 -4.59673 23966 ft 362 kts 312°
2026-05-07 07:13 54.07799 -4.62845 23969 ft 362 kts 312°
2026-05-07 07:14 54.09514 -4.66023 23969 ft 362 kts 311°
2026-05-07 07:14 54.11230 -4.69211 23966 ft 362 kts 311°
2026-05-07 07:14 54.12938 -4.72393 23960 ft 362 kts 311°
2026-05-07 07:14 54.14624 -4.75542 23788 ft 361 kts 311°
2026-05-07 07:15 54.16328 -4.78725 23042 ft 368 kts 311°
2026-05-07 07:15 54.18079 -4.82001 22316 ft 372 kts 310°
2026-05-07 07:15 54.19829 -4.85282 21817 ft 370 kts 310°
2026-05-07 07:15 54.21569 -4.88549 21352 ft 367 kts 310°
2026-05-07 07:16 54.23320 -4.91841 20865 ft 364 kts 310°
2026-05-07 07:16 54.25033 -4.95062 20387 ft 362 kts 310°
2026-05-07 07:16 54.26749 -4.98297 19912 ft 359 kts 310°
2026-05-07 07:16 54.28433 -5.01479 19438 ft 357 kts 310°
2026-05-07 07:17 54.30119 -5.04669 18964 ft 354 kts 310°
2026-05-07 07:17 54.31814 -5.07877 18484 ft 352 kts 309°
2026-05-07 07:17 54.33491 -5.11058 18020 ft 349 kts 310°
2026-05-07 07:17 54.35128 -5.14169 17556 ft 347 kts 310°
2026-05-07 07:18 54.36737 -5.17228 17117 ft 345 kts 310°
2026-05-07 07:18 54.38365 -5.20328 16669 ft 342 kts 310°
2026-05-07 07:18 54.39975 -5.23395 16223 ft 339 kts 309°
2026-05-07 07:18 54.41563 -5.26426 15776 ft 337 kts 309°
2026-05-07 07:19 54.43165 -5.29490 15322 ft 335 kts 310°
2026-05-07 07:19 54.44772 -5.32562 14971 ft 329 kts 310°
2026-05-07 07:19 54.46350 -5.35457 14617 ft 324 kts 311°
2026-05-07 07:19 54.47903 -5.38229 14272 ft 319 kts 311°
2026-05-07 07:20 54.49453 -5.40989 13936 ft 315 kts 312°
2026-05-07 07:20 54.50967 -5.43692 13610 ft 310 kts 311°
2026-05-07 07:20 54.52369 -5.46501 13287 ft 304 kts 306°
2026-05-07 07:20 54.53724 -5.49271 12979 ft 300 kts 314°
2026-05-07 07:21 54.55280 -5.51621 12678 ft 297 kts 318°
2026-05-07 07:21 54.56904 -5.53888 12373 ft 297 kts 319°
2026-05-07 07:21 54.58515 -5.56108 12069 ft 296 kts 319°
2026-05-07 07:21 54.60128 -5.58328 11763 ft 295 kts 319°
2026-05-07 07:22 54.61749 -5.60555 11455 ft 294 kts 319°
2026-05-07 07:22 54.63328 -5.62723 11154 ft 292 kts 319°
2026-05-07 07:22 54.64925 -5.64916 10846 ft 291 kts 319°
2026-05-07 07:22 54.66496 -5.67072 10544 ft 290 kts 319°
2026-05-07 07:23 54.68072 -5.69238 10240 ft 289 kts 319°
2026-05-07 07:23 54.69656 -5.71420 9931 ft 288 kts 318°
2026-05-07 07:23 54.71206 -5.73557 9631 ft 287 kts 319°
2026-05-07 07:23 54.72771 -5.75714 9328 ft 286 kts 319°
2026-05-07 07:24 54.74306 -5.77830 9030 ft 285 kts 318°
2026-05-07 07:24 54.75878 -5.79993 8715 ft 284 kts 319°
2026-05-07 07:24 54.77420 -5.82111 8416 ft 283 kts 318°
2026-05-07 07:24 54.78954 -5.84215 8107 ft 282 kts 318°
2026-05-07 07:25 54.82039 -5.88415 7493 ft 280 kts 319°
2026-05-07 07:25 54.83580 -5.90502 7185 ft 279 kts 318°
2026-05-07 07:25 54.85095 -5.92549 6880 ft 279 kts 319°
2026-05-07 07:26 54.86636 -5.94624 6569 ft 278 kts 320°
2026-05-07 07:26 54.88371 -5.96177 6249 ft 283 kts 344°
2026-05-07 07:26 54.90329 -5.96235 5939 ft 287 kts 12°
2026-05-07 07:26 54.92109 -5.94759 5628 ft 286 kts 41°
2026-05-07 07:27 54.93310 -5.92070 5318 ft 281 kts 69°
2026-05-07 07:27 54.93780 -5.88735 5013 ft 276 kts 85°
2026-05-07 07:27 54.93914 -5.85346 4691 ft 272 kts 98°
2026-05-07 07:27 54.93455 -5.82161 4381 ft 265 kts 114°
2026-05-07 07:28 54.92686 -5.79188 4050 ft 261 kts 128°
2026-05-07 07:28 54.91285 -5.77234 3519 ft 253 kts 165°
2026-05-07 07:28 54.89598 -5.76992 3337 ft 239 kts 191°
2026-05-07 07:28 54.88069 -5.77967 3161 ft 229 kts 212°
2026-05-07 07:29 54.86777 -5.79465 3005 ft 221 kts 214°
2026-05-07 07:29 54.85522 -5.80932 2846 ft 213 kts 213°
2026-05-07 07:29 54.84298 -5.82341 2688 ft 206 kts 213°
2026-05-07 07:29 54.83133 -5.83662 2537 ft 198 kts 213°
2026-05-07 07:30 54.82003 -5.84933 2456 ft 188 kts 212°
2026-05-07 07:30 54.80944 -5.86118 2446 ft 176 kts 212°
2026-05-07 07:30 54.79945 -5.87230 2437 ft 166 kts 212°
2026-05-07 07:30 54.78967 -5.88314 2449 ft 166 kts 212°
2026-05-07 07:31 54.78004 -5.89383 2453 ft 166 kts 212°
2026-05-07 07:31 54.77022 -5.90472 2455 ft 166 kts 212°
2026-05-07 07:31 54.76053 -5.91545 2457 ft 166 kts 212°
2026-05-07 07:31 54.75077 -5.92624 2453 ft 166 kts 212°
2026-05-07 07:32 54.74114 -5.93690 2450 ft 161 kts 213°
2026-05-07 07:32 54.73298 -5.94889 2424 ft 146 kts 228°
2026-05-07 07:32 54.72699 -5.96273 2442 ft 145 kts 236°
2026-05-07 07:32 54.72196 -5.97781 2518 ft 141 kts 240°
2026-05-07 07:33 54.71768 -5.99302 2494 ft 140 kts 242°
2026-05-07 07:33 54.71361 -6.00812 2469 ft 140 kts 242°
2026-05-07 07:33 54.70949 -6.02343 2441 ft 142 kts 242°
2026-05-07 07:33 54.70531 -6.03888 2265 ft 141 kts 242°
2026-05-07 07:34 54.70114 -6.05427 2069 ft 140 kts 242°
2026-05-07 07:34 54.69706 -6.06933 1881 ft 140 kts 243°
2026-05-07 07:34 54.69296 -6.08450 1691 ft 139 kts 241°
2026-05-07 07:34 54.68885 -6.09969 1501 ft 139 kts 242°
2026-05-07 07:35 54.68477 -6.11470 1346 ft 139 kts 243°
2026-05-07 07:35 54.68069 -6.12982 1146 ft 138 kts 243°
2026-05-07 07:35 54.67663 -6.14481 949 ft 138 kts 244°
2026-05-07 07:35 54.67256 -6.15995 753 ft 138 kts 242°
2026-05-07 07:36 54.66857 -6.17474 574 ft 137 kts 243°
2026-05-07 07:36 54.66457 -6.18956 388 ft 135 kts 244°
2026-05-07 07:36 54.66063 -6.20411 266 ft 126 kts 244°
2026-05-07 07:36 54.65780 -6.21462 244 ft 55 kts 245°
2026-05-07 07:37 54.65698 -6.21767 239 ft 22 kts 245°
2026-05-07 07:37 54.65632 -6.22012 236 ft 23 kts 245°
2026-05-07 07:37 54.65562 -6.22272 233 ft 24 kts 245°
2026-05-07 07:37 54.65496 -6.22518 229 ft 15 kts 245°
2026-05-07 07:38 54.65488 -6.22672 227 ft 13 kts 312°
2026-05-07 07:38 54.65575 -6.22744 224 ft 14 kts 342°
2026-05-07 07:38 54.65680 -6.22795 220 ft 14 kts 348°
2026-05-07 07:38 54.65739 -6.22724 220 ft 8 kts 72°
2026-05-07 07:39 54.65747 -6.22638 222 ft 6 kts 84°
2026-05-07 07:39 54.65751 -6.22574 223 ft 4 kts 86°
2026-05-07 07:39 54.65753 -6.22525 224 ft 4 kts 85°
2026-05-07 07:39 54.65757 -6.22448 226 ft 8 kts 84°
2026-05-07 07:40 54.65766 -6.22317 229 ft 13 kts 84°
2026-05-07 07:40 54.65780 -6.22166 232 ft 12 kts 73°
2026-05-07 07:40 54.65812 -6.22028 233 ft 12 kts 67°
2026-05-07 07:40 54.65847 -6.21895 235 ft 11 kts 64°
2026-05-07 07:41 54.65883 -6.21773 237 ft 10 kts 64°
2026-05-07 07:41 54.65913 -6.21657 239 ft 10 kts 65°
2026-05-07 07:41 54.65944 -6.21543 241 ft 10 kts 65°
2026-05-07 07:41 54.65971 -6.21437 243 ft 9 kts 65°
2026-05-07 07:42 54.65998 -6.21336 244 ft 8 kts 65°
2026-05-07 07:42 54.66023 -6.21249 247 ft 7 kts 63°
2026-05-07 07:42 54.66062 -6.21203 247 ft 7 kts 354°
2026-05-07 07:42 54.66116 -6.21251 246 ft 9 kts 333°
2026-05-07 07:43 54.66155 -6.21315 245 ft 4 kts 272°
2026-05-07 07:43 54.66153 -6.21342 244 ft 1 kts 255°
2026-05-07 07:43 54.66149 -6.21362 243 ft 1 kts 249°
2026-05-07 07:43 54.66145 -6.21379 243 ft 1 kts 247°
2026-05-07 07:44 54.66143 -6.21384 243 ft 0 kts 247°